Погода в Морозовске

Погода в Морозовске : погода сейчас, прогноз погоды и архив. Всё, что Вы хотите узнать о погоде в Морозовске!

Хотите узнать прогноз погоды в Морозовске? Тогда Вам сюда: Погода в Морозовске

Поиск расширенной информации на нашем сайте:

Другие новости

Новости СМИ2

Главная страница сайта

Новости сайта

03.07.2017

Напоминаем, что на нашем специализированном сайте Метеоцентр.Азия вы можете получить высокодетализированные автоматические прогнозы погоды по пунктам России, СНГ и мира в авиационном формате (включающие направление и скорость ветра, видимость, явления погоды, количество и форму облачности, нижнюю и верхнюю границу облачности).


Погода в Морозовске - сегодня

Время (UTC), дата Ветер
(°,м/с) 
Видим.   Явления Облачность Т
(°С)
Тd
(°С)
f(%) Тe
(°С)
Pmin
(гПа)
dP
(гПа)
Po
(мм)
O2
(г/м3)
Тmin Tmax R s Состояние
почвы
21 18.05.18 290 (З) 2{16}  20000 м  слаб. ливневой дождь  10/10 600 м кучево-дожд. 
[Cb calv]
+15.8 +14 89 +24  1013.7  0.5  752  284           
00 19.05.18 230 (ЮЗ) 20000 м  {ливн. осадки}  3/0 средняя 
[Ac lent]
+12.8 +11.8 94 +18  1013.8  -0.1  752  287           
03 19.05.18 тихо ()   20000 м    ясно 
+15.5 +13.3 87 +21  1014.2  0.5  753  284  +11.6      влажная 
06 19.05.18 210 (ЮЗ) 20000 м    1/0 верхняя 
[Ci fib]
+21.9 +13.2 58 +28  1013.5  -0.4  752  278           
09 19.05.18 230 (ЮЗ) 5{10}  20000 м    4/3 300 м кучево-дожд., верхняя 
[Cb calv|Cc]
+25.4 +12.5 45 +30  1013.6  0.2  752  275           
12 19.05.18 210 (ЮЗ) 6-10{11}  20000 м    5/3 600 м верхняя 
[Cu med, cong|Ci fib]
+27 +8.1 30 +27  1012.7  -0.8  752  274           
15 19.05.18 220 (ЮЗ) 4{10}  20000 м    8/3 600 м средняя, верхняя 
[Cu med, cong|Ac trans|Ci sp]
+25.5 +8 33 +26  1012.4  -0.4  752  276    +27.2       
18 19.05.18 230 (ЮЗ) 20000 м    3/0 средняя, верхняя 
[Ac trans|Ci sp]
+17.1 +11.1 68 +21  1014.1  1.4  753  283           
21 19.05.18 140 (ЮВ) 20000 м    3/0 средняя, верхняя 
[Ac trans|Ci fib]
+15.3 +11.3 77 +20  1014.2  753  285           
00 20.05.18 тихо ()   20000 м    1/0 верхняя 
[Ci fib]
+11.8 +9.5 86 +12  1014.1  -0.2  752  289           
03 20.05.18 тихо ()   20000 м    9/0 средняя, верхняя 
[Ac trans|Ci fib]
+13.9 +11.4 85 +17  1014.7  0.6  753  287  +11.4        сухая 
06 20.05.18 220 (ЮЗ) 20000 м    9/8 600 м кучево-дожд., средняя 
[Cb calv|Ac trans]
+21.3 +11.3 53 +24  1015  0.6  753  280           
09 20.05.18 190 (Ю) 20000 м  {ливн. осадки}  8/4 600 м кучево-дожд., средняя, верхняя 
[Cb calv|Ac trans|Cc]
+25.9 +8.1 32 +26  1014.7  -0.2  753  276           
12 20.05.18 220 (ЮЗ) 20000 м  {ливн. осадки}  6/3 1000 м средняя 
[Cu hum|Ac trans]
+26.6 +9.6 34 +27  1013.6  -1.1  752  275           
15 20.05.18 290 (З) 20000 м  слаб. ливневой дождь  8/6 600 м кучево-дожд., средняя 
[Cb calv|Ac trans]
+21.7 +13.2 58 +27  1013.3  -0.5  752  278    +27.9       
18 20.05.18 тихо ()   20000 м  {ливн. осадки}  8/5 600 м кучево-дожд., средняя, верхняя 
[Cb calv|Ac trans|Ci fib]
+18.7 +13.1 70 +24  1014  0.5  753  281           
21 20.05.18 280 (З) 6{12}  20000 м    9/6 600 м кучево-дожд., средняя, верхняя 
[Cb calv|Ac trans|Ci fib]
+17.8 +13.4 75 +24  1015  753  282           
00 21.05.18 тихо ()   20000 м  в посл. час ливневой дождь  10/10 600 м кучево-дожд. 
[Cb calv]
+15.6 +13.7 88 +22  1013.7  -1.4  752  284           
03 21.05.18 090 (В) 20000 м    10/8 600 м кучево-дожд., средняя 
[Cb calv|Ac As]
+15.9 +14.4 91 +25  1014.5  0.9  753  284  +14.5    0.3    влажная 
06 21.05.18 360 (С) 20000 м  в посл. час ливневой дождь  9/0 средняя, верхняя 
[Ac trans|Ci fib]
+19.8 +15.8 78 +31  1015.3  0.9  754  280           
09 21.05.18 180 (Ю) 20000 м    10/4 600 м кучево-дожд., средняя 
[Cb calv|Ac und]
+20.8 +16.4 76 +32  1016.8  1.4  755  279           
12 21.05.18 тихо ()   20000 м    10/4 600 м кучево-дожд., средняя 
[Cb calv|Ac und]
+21.6 +15.3 67 +31  1016.9  0.2  755  279           
15 21.05.18 100 (В) 20000 м    9/3 600 м кучево-дожд., средняя 
[Cb calv|Ac trans]
+21.7 +15.8 69 +32  1016.8  0.1  755  278    +22.1     
18 21.05.18 100 (В) 20000 м    3/3 600 м кучево-дожд., средняя 
[Cb calv|Ac lent]
+16.4 +14.8 90 +26  1018.2  1.2  756  284           
21 21.05.18 тихо ()   1000 м  дымка  ясно 
+12.9 +12.2 96 +17  1018.4  0.1  756  288           
Время (UTC), дата Ветер
(°,м/с) 
Видим.   Явления Облачность Т
(°С)
Тd
(°С)
f(%) Тe
(°С)
Pmin
(гПа)
dP
(гПа)
Po
(мм)
O2
(г/м3)
Тmin Tmax R s Состояние
почвы

Для получения пояснительной информации подведите курсор к названию столбца.

ПОГОДА в Морозовске - архив

Всё, что Вы хотите узнать о погоде в Морозовске - удобно и подробно!

Выберите нужную дату (начиная с 1 января 2015* года) и нажмите кнопку "Найти".
Будут отображены архивные сводки погоды по пункту Морозовск, начиная с указанной даты.


Отображать данные в формате CSV (для использования в таблицах Excel)


Внимание! Наш архив погоды предназначен исключительно для личного некоммерческого использования в познавательных целях. Если Вам необходимы официальные справки о состоянии погоды (для производственных, юридических, коммерческих и т.п. целей), обращайтесь в органы Росгидромета.

*Примечание: данная дата относится к архиву по метеостанциям СССР (Россия, СНГ, Балтия).
Архив по метеостанциям Зарубежной Европы и Азии (кроме Китая) хранится 10 дней, по другим регионам земного шара (Китай, Африка, Америка, Австралия, Океания) - 1 день.

Морозовск - район местоположения метеостанции


Название, широта, долгота, высота метеостанции:
Морозовск 48.3°ш. 41.9°д. 90 м над ур. моря [Российская Федерация]

Дополнительная информация

В oтличие oт бoльшинства пoгoдных сайтoв мы публикуем пoдрoбную метеoинфoрмацию в детальнoм прoфессиoнальнoм фoрмате.

Характеристики температуры и влажнoсти вoздуха измеряются на высoте 2 м в тени вдали oт зданий и деревьев.
Скoрoсть ветра измеряется на высoте 10 м (на урoвне рoста челoвека скoрoсть ветра ниже в 1.5-2 раза). Если метеoстанция нахoдится в гoрoде или в лесу, тo скoрoсть ветра занижена на 2-4 м/с пo сравнению с oткрытым местoм. Скoрoсть ветра над акватoриями крупных рек и oзёр, а также на вершинах хoлмoв на 2-5 м/с выше, чем в oбычных услoвиях.
Атмoсфернoе давление в разных тoчках местнoсти мoжет значительнo oтличаться oт давления на метеoстанции, в зависимoсти oт услoвий рельефа (при пoдъёме на 10 м давление пoнижается примернo на 1 мм рт.ст.).